星链-1457 (STARLINK-1457 )

导读 | 豆包AI

STARLINK-1457是美国SpaceX公司星链星座的卫星,于2020年6月4日发射升空,运行在近地低轨道,为全球卫星互联网网络提供支撑。它属于星链早期部署的卫星,承担着为偏远地区、海上航空提供高速低延迟互联网接入的任务,推动全球网络覆盖。该卫星的部署进一步壮大了星链星座规模,但也引发了关于太空拥堵、天文观测干扰等全球范围的争议。

基本信息
目录编号:
45674
目录名称:
STARLINK-1457
国际标识:
2020-035T
轨道中心:
EARTH
卫星名称:
星链-1457
卫星全名:
星链-1457 (STARLINK-1457 )
卫星状态:
在轨 (已飞行2109 天)
发射日期:
2020-06-04 UTC
国别 :
美国 (US)
星等 :
--
轨道信息
数据来源 国际轨道数据
星历时间: 2026-03-14T08:00:02+0800
12小时前
查看轨道信息
半长轴: 6709.036km
偏心率: 0.0008522
轨道倾角: 53.047°
近地点辐角 87.917°
升交点赤经 0.829°
平近点角 77.331°
近地点: 325.181km
远地点: 336.617km
周期: 91.149分钟
每日圈数: 15.798384
详细信息
固有亮度:
5
最大亮度:
2.5
卫星平台:
Starlink V1.0
覆盖范围:
全球
运营商:
太空探索技术公司
运营商所在国:
美国
制造商(研发单位):
太空探索技术公司
制造商所在国:
美国
使用方式:
暂无
卫星简介
星链(Starlink)计划是由太空探索技术公司(SpaceX)提出的一个巨型低轨卫星互联网星座项目,计划在2019年至2024年间在太空搭建由约1.2万颗卫星组成的“星链”网络,其中1584颗将部署在地球上空550千米处的近地轨道,并从2020年开始工作。该卫星仍在工作。
2D轨道图
3D轨道图
轨道高度分析图
轨道倾角分析图
轨道综合分析图
查看轨道综合分析图